Location: Asheville, NC
(35.6000°N, 82.5500°W)
Time: 22:35:59
(UTC-04:00)

Vanguard 2 Rocket - Pass Details

Date: 08 December 2017
Orbit: 553 x 3328 km, 32.9° (Epoch: 25 April)

Event Time Altitude Azimuth Distance (km) Brightness Sun altitude
Rises 03:59:04 0° 285° (WNW) 7,316 - -41.6°
Reaches altitude 10° 04:04:46 10° 279° (W) 6,197 - -40.4°
Maximum altitude 04:20:49 36° 222° (SW) 3,655 - -37.1°
Exits shadow 04:21:55 36° 215° (SW) 3,595 9.6 -36.9°
Drops below altitude 10° 04:32:04 10° 161° (SSE) 4,332 10.6 -34.9°
Sets 04:35:16 0° 152° (SSE) 4,972 11.1 -34.2°
